Temperature
6 6 6 6 6 6 6 5 6 6 6 5 5 5 6 6 6 6 6 6 6 6 6 6 6 6 6 6 6 6 6 6 6 7 7 7 7 7 7 7 7 7 7
5 6 6 6 5 5 5 5 5 5 5 5 5 5 5 5 5 5 5 5 5 5 5 5 5 5 5 6 6 6 6 6 6 5 5 6 6 6 6 7 7 7 7
5 5 5 5 5 5 5 5 5 5 5 4 4 4 4 4 5 5 5 5 5 5 5 5 5 5 5 5 5 5 5 5 5 5 5 5 5 5 5 6 6 6 6
4 4 4 5 5 5 5 4 4 4 4 4 4 4 4 4 4 4 4 4 4 4 4 4 4 4 4 4 4 4 4 5 5 4 4 4 4 4 4 5 5 5 6
3 4 4 4 4 4 4 4 4 4 4 3 3 3 4 4 4 4 4 4 4 4 4 3 3 4 4 4 4 4 4 4 4 4 4 4 4 4 4 4 5 5 5
3 3 3 3 4 4 4 3 3 3 3 3 3 3 3 3 3 3 3 3 3 3 3 3 3 3 3 3 3 3 3 3 3 3 3 3 3 3 3 3 3 4 5
2 3 3 3 3 3 3 3 3 3 3 3 3 2 2 2 2 2 3 3 3 3 3 3 2 2 2 3 3 3 3 3 3 3 3 3 3 3 3 3 3 3 3
2 2 2 2 2 3 2 2 2 2 2 2 2 2 2 2 2 2 2 2 2 2 2 2 2 2 2 2 2 2 2 2 2 2 3 2 3 3 2 2 2 2 2
1 1 1 2 2 2 2 2 2 2 2 2 2 2 1 1 1 1 1 1 1 1 1 1 1 1 1 1 1 2 2 2 2 2 2 2 2 2 2 2 2 1 1
1 1 1 1 1 1 1 1 1 1 1 1 1 1 1 1 1 1 1 1 1 1 0 1 1 1 1 1 1 1 1 1 1 1 1 1 1 1 1 1 1 1 1
0 0 0 0 1 1 1 1 1 1 1 1 0 0 0 -0 -0 -0 -0 -0 -0 -0 -0 -0 0 0 0 0 0 0 0 0 1 1 1 1 1 1 1 1 0 0 0
-1 -1 -1 -0 -0 0 0 0 0 -0 -0 -0 -0 -0 -1 -1 -1 -1 -1 -1 -1 -1 -1 -1 -1 -1 -0 -0 -0 -0 -0 -0 -0 0 -0 0 -0 -0 -0 -0 -0 -0 -0
-2 -1 -1 -1 -1 -1 -0 -0 -0 -0 -1 -1 -1 -1 -1 -1 -1 -1 -2 -2 -2 -2 -2 -2 -1 -1 -1 -1 -1 -1 -1 -1 -1 -1 -1 -1 -1 -1 -1 -1 -1 -1 -1
-3 -3 -2 -2 -2 -1 -1 -1 -1 -1 -1 -1 -1 -1 -1 -2 -2 -2 -2 -2 -2 -2 -2 -2 -2 -2 -2 -2 -2 -2 -1 -1 -1 -1 -1 -1 -2 -2 -1 -1 -1 -2 -2
-4 -4 -3 -3 -3 -2 -2 -2 -2 -2 -2 -2 -2 -2 -2 -2 -2 -3 -3 -3 -3 -3 -3 -3 -3 -3 -3 -3 -2 -2 -2 -2 -2 -2 -2 -2 -2 -2 -2 -2 -2 -2 -2
-4 -4 -4 -4 -3 -3 -3 -3 -2 -3 -3 -2 -3 -3 -3 -3 -3 -3 -3 -3 -3 -3 -3 -4 -4 -3 -3 -3 -3 -3 -3 -3 -3 -3 -3 -3 -3 -3 -3 -3 -3 -3 -3
-5 -4 -4 -4 -4 -4 -4 -3 -3 -3 -3 -3 -3 -3 -4 -4 -3 -4 -4 -4 -4 -4 -4 -4 -4 -4 -4 -4 -4 -4 -4 -4 -4 -4 -3 -4 -4 -4 -4 -4 -4 -4 -4
-5 -5 -5 -4 -4 -4 -4 -4 -4 -4 -4 -4 -4 -4 -4 -4 -4 -4 -4 -5 -5 -5 -5 -5 -5 -5 -4 -4 -4 -5 -5 -4 -4 -4 -4 -5 -5 -5 -5 -5 -5 -4 -4
-5 -5 -5 -5 -5 -5 -5 -5 -5 -5 -5 -5 -5 -5 -5 -5 -5 -5 -5 -5 -5 -5 -5 -5 -5 -5 -5 -5 -5 -5 -5 -5 -5 -5 -5 -5 -5 -6 -6 -6 -6 -5 -5
-6 -6 -6 -5 -5 -5 -5 -5 -5 -5 -5 -5 -5 -5 -6 -6 -6 -6 -6 -6 -6 -6 -6 -6 -6 -6 -6 -6 -6 -6 -6 -6 -6 -6 -6 -6 -6 -6 -6 -6 -6 -6 -6
-6 -6 -6 -6 -6 -6 -6 -6 -6 -6 -6 -6 -6 -6 -6 -6 -6 -6 -7 -7 -7 -7 -7 -7 -7 -7 -7 -7 -7 -7 -7 -7 -7 -7 -7 -7 -7 -7 -7 -7 -7 -7 -7
-7 -7 -7 -6 -6 -6 -6 -6 -6 -6 -6 -7 -6 -6 -7 -7 -7 -7 -7 -7 -7 -8 -8 -8 -8 -8 -8 -8 -8 -7 -7 -8 -8 -8 -8 -8 -8 -8 -8 -8 -8 -7 -7
-8 -7 -7 -7 -7 -7 -7 -7 -7 -7 -7 -7 -7 -7 -7 -7 -8 -8 -8 -8 -8 -8 -8 -8 -9 -9 -9 -9 -9 -8 -8 -8 -8 -8 -8 -8 -8 -8 -8 -8 -8 -8 -8
-8 -8 -8 -8 -7 -7 -7 -7 -8 -8 -8 -8 -8 -8 -8 -8 -8 -8 -9 -9 -9 -9 -9 -9 -9 -10 -10 -9 -9 -9 -9 -9 -9 -9 -9 -9 -9 -9 -9 -9 -9 -9 -9
-8 -8 -8 -8 -8 -8 -8 -8 -8 -8 -8 -8 -8 -9 -9 -9 -9 -9 -9 -9 -9 -10 -10 -10 -10 -10 -10 -10 -10 -10 -10 -10 -10 -10 -10 -10 -10 -9 -9 -9 -9 -9 -9
-9 -9 -9 -9 -9 -8 -8 -8 -9 -9 -9 -9 -9 -9 -9 -10 -10 -10 -10 -10 -10 -10 -10 -10 -10 -10 -10 -10 -10 -10 -10 -10 -10 -10 -10 -10 -10 -10 -10 -10 -10 -10 -10
Wind_Speed
5 2 3 3 3 3 4 4 4 3 3 2 2 2 1 1 0 1 1 2 2 3 3 2 2 2 2 2 2 1 1 2 1 2 2 2 1 0 1 1 1 2 2
3 2 2 3 3 4 4 4 5 4 4 3 2 1 1 2 1 0 0 1 2 2 3 2 2 2 1 2 2 2 1 1 1 1 1 1 1 1 1 0 0 1 2
4 3 2 3 3 4 5 4 4 4 4 3 2 1 1 1 1 1 1 1 1 2 2 3 2 2 2 2 2 2 2 1 0 1 2 2 2 1 1 1 1 1 1
3 3 3 3 4 5 4 4 4 3 3 3 4 4 3 2 3 2 2 1 2 2 2 2 3 2 2 2 2 2 1 2 2 1 0 1 1 1 1 2 1 2 2
4 4 3 4 4 3 3 3 3 3 3 3 5 5 4 3 1 2 2 2 1 2 2 3 2 2 2 3 2 2 2 2 2 2 1 0 0 1 2 2 2 2 2
4 4 2 1 1 1 2 3 3 3 3 4 4 5 5 4 2 2 3 2 2 2 2 3 3 3 3 3 3 3 3 3 2 2 2 2 2 2 2 3 3 3 3
3 3 2 1 1 1 1 2 3 3 3 3 4 4 5 4 5 4 4 3 3 2 3 3 3 3 3 4 4 3 4 4 3 3 3 3 3 2 2 2 2 3 3
4 3 3 2 2 2 1 2 3 3 3 4 4 4 4 3 3 4 3 4 4 4 3 4 4 4 4 4 4 3 3 3 4 4 4 3 3 3 3 2 2 2 3
5 4 3 2 2 2 2 3 3 3 3 4 4 4 4 3 4 3 3 3 3 3 4 4 4 4 5 4 4 4 4 3 4 4 5 4 4 3 3 3 3 3 3
5 5 4 3 2 2 2 2 2 3 3 3 3 3 4 4 3 3 4 4 4 4 4 4 4 4 4 4 4 4 4 4 4 3 4 5 4 3 4 4 4 4 5
5 5 4 3 3 2 2 1 1 1 1 2 3 3 3 3 3 4 4 4 3 4 5 5 5 5 5 4 4 5 5 5 5 4 5 5 4 4 4 4 4 5 5
5 5 4 4 3 3 2 2 1 1 2 2 2 2 2 2 3 4 4 3 3 4 4 5 5 5 5 5 5 5 5 6 6 6 6 6 5 5 4 4 5 5 5
6 6 5 4 4 3 3 2 2 2 2 1 1 1 2 2 3 4 3 3 3 3 4 4 5 6 6 6 6 6 6 6 6 6 6 6 6 6 5 5 5 5 5
6 6 5 5 4 4 3 2 3 2 2 1 1 2 2 3 3 3 3 4 4 3 4 5 5 5 5 6 6 6 6 5 5 6 6 6 7 7 7 6 6 5 5
7 6 6 5 5 4 3 3 3 2 2 1 1 2 2 2 2 2 3 3 3 4 4 4 4 5 5 6 6 6 6 6 5 5 6 6 7 9 7 6 6 6 6
7 7 7 6 6 5 4 3 3 2 1 1 2 2 2 2 2 3 2 3 3 3 3 4 4 5 5 7 8 7 5 5 5 5 5 6 7 8 9 10 10 8 8
8 7 7 6 6 6 5 4 3 2 2 2 2 2 2 2 3 3 2 3 2 2 2 3 3 4 6 8 8 8 5 5 5 5 5 5 6 7 5 8 9 9 11
8 8 7 7 6 5 4 3 2 2 2 2 2 3 3 3 3 2 2 3 2 2 2 2 3 3 5 7 7 7 4 4 5 6 6 6 6 6 6 6 6 6 7
7 7 7 7 6 5 4 2 2 2 2 3 3 3 3 3 3 3 3 2 2 2 2 2 2 3 4 7 7 6 3 4 5 5 5 6 6 9 9 6 6 6 6
7 7 6 6 5 5 3 1 2 2 3 3 3 3 3 2 3 3 3 2 1 2 2 2 2 3 4 6 7 6 2 3 3 3 4 7 7 9 9 6 5 7 6
7 6 5 5 5 5 3 2 2 4 4 3 3 3 3 3 3 2 2 1 1 1 1 2 2 3 4 6 7 6 3 3 3 3 3 4 8 9 9 8 6 8 6
7 6 6 6 5 4 2 3 4 4 3 3 3 3 3 2 2 2 2 1 1 1 1 2 2 3 4 5 6 6 5 4 3 3 3 4 7 8 8 7 7 9 7
7 6 5 6 6 4 2 3 4 4 3 3 3 3 3 3 2 2 2 2 1 1 1 1 2 3 3 4 7 7 6 6 3 3 5 6 7 6 5 7 8 7 4
6 5 5 6 6 5 4 3 4 3 2 2 3 3 3 3 2 2 2 2 2 2 2 2 2 3 3 3 4 4 4 5 4 3 4 6 6 5 5 5 5 4 4
6 5 5 6 6 6 5 4 3 2 2 2 2 3 3 2 2 2 2 2 3 3 3 2 3 3 3 5 6 4 3 2 2 2 1 2 2 2 2 3 3 2 3
6 6 6 6 6 6 5 4 3 2 1 2 2 2 2 2 2 2 3 4 4 6 6 5 4 4 6 8 7 6 6 6 4 2 1 2 2 2 3 3 3 3 3
Wind_Direction
259 231 200 184 167 169 172 179 180 168 150 159 163 164 178 166 60 101 128 141 145 148 140 127 118 115 128 138 125 99 91 46 36 75 37 7 6 42 31 58 69 42 31
292 265 203 177 184 189 190 189 192 185 182 187 185 184 170 179 193 150 126 155 161 158 161 147 154 150 137 127 133 112 113 71 50 110 113 350 333 321 289 278 184 14 17
258 253 223 207 202 204 202 203 204 196 192 174 136 125 101 102 140 188 220 248 201 175 168 173 166 164 163 173 176 171 154 179 237 116 139 154 222 280 295 261 246 263 275
261 255 237 222 220 221 210 202 198 193 188 176 170 170 183 204 214 207 216 246 217 197 185 182 179 176 180 193 202 195 199 177 194 188 87 163 160 181 278 285 265 267 261
260 254 246 229 227 216 202 197 191 189 183 187 189 188 197 201 189 179 189 210 236 215 202 195 189 191 198 201 203 204 205 205 195 179 178 196 339 208 206 259 286 294 271
281 274 270 235 226 197 186 178 185 196 189 188 192 197 198 188 177 202 203 215 225 236 219 208 203 204 204 204 206 204 206 207 202 196 187 185 186 199 206 234 267 274 272
292 288 289 268 246 220 201 185 189 207 205 197 201 205 203 197 197 211 214 213 222 232 228 223 215 218 216 209 199 205 210 207 204 208 211 213 217 204 212 228 256 274 279
319 304 291 271 247 229 221 211 207 217 208 207 214 210 205 205 214 216 224 223 226 230 229 220 220 222 218 213 200 211 219 210 211 221 216 216 221 216 211 211 220 270 274
329 323 316 316 299 266 240 226 219 225 221 217 212 208 206 209 219 220 224 234 235 237 226 223 223 222 217 212 206 218 218 217 218 223 219 222 227 222 224 215 208 213 250
334 335 333 325 317 302 293 259 226 225 222 216 215 219 212 218 226 224 227 236 241 233 226 227 226 225 223 216 216 218 223 220 227 228 219 226 229 223 223 221 220 220 227
324 324 325 328 326 335 335 322 284 260 244 231 226 214 215 223 224 228 233 235 246 239 228 227 226 225 225 222 220 224 221 222 229 226 222 229 225 223 223 223 225 226 224
324 326 328 338 345 342 342 337 331 293 272 259 240 231 224 227 231 240 244 241 242 246 238 229 226 225 225 220 220 226 229 225 229 225 223 230 227 228 229 225 230 234 229
334 335 338 338 333 329 328 327 320 305 303 288 271 269 249 238 241 247 255 253 244 248 247 232 226 228 226 224 225 226 229 232 232 226 226 229 224 232 232 231 233 239 242
330 331 331 327 323 321 318 317 318 320 321 322 292 273 267 257 254 253 253 251 247 243 243 241 236 233 231 230 230 228 232 234 234 234 232 232 227 231 230 233 234 236 241
335 332 329 324 323 324 322 320 318 323 325 326 303 283 287 286 278 268 256 253 251 250 250 247 246 243 236 231 230 229 230 229 233 238 238 238 237 238 237 238 233 232 238
327 326 325 326 322 317 315 316 316 315 328 318 306 313 315 306 294 285 279 269 264 262 255 252 248 249 246 242 240 236 231 228 230 238 243 244 244 246 250 252 249 241 239
324 323 320 314 311 309 306 297 295 311 318 309 317 324 321 312 301 298 297 283 274 273 266 257 248 247 250 249 248 246 240 230 231 234 241 249 248 252 246 253 256 254 253
323 320 319 317 316 311 304 298 306 312 309 317 322 321 321 314 311 309 300 296 294 278 273 271 259 254 257 258 256 254 247 238 236 234 235 239 246 244 244 244 251 254 258
307 307 307 309 312 312 306 308 318 321 323 318 314 310 306 307 312 308 301 305 310 309 306 291 282 270 273 268 265 261 243 243 245 242 238 236 239 247 250 246 251 262 266
312 312 314 318 319 317 315 312 309 310 300 299 299 299 300 298 297 295 302 315 310 306 308 305 301 287 284 277 268 263 245 247 255 257 254 251 250 253 252 240 241 255 261
315 316 316 317 312 314 315 305 305 295 295 303 308 311 306 297 289 291 300 302 309 328 322 308 304 294 290 291 279 270 257 245 255 260 261 262 262 260 258 256 245 254 263
320 322 322 318 317 316 309 302 300 298 309 313 314 316 312 306 307 313 314 314 310 329 318 313 311 304 298 298 292 285 277 267 253 257 259 259 270 273 271 268 263 266 267
316 320 317 315 319 317 302 292 301 312 319 323 319 317 319 321 314 301 300 307 296 282 295 304 306 309 307 302 304 301 292 280 273 261 263 269 271 275 276 272 273 271 256
316 318 319 318 320 321 318 295 302 313 315 315 317 318 321 321 323 311 296 292 286 280 278 284 293 299 303 303 301 298 295 292 282 279 273 271 270 270 275 278 277 264 249
320 320 316 313 313 320 319 315 313 314 314 311 313 316 313 306 312 315 299 289 272 264 270 268 271 283 291 298 306 313 303 301 288 306 305 293 287 277 275 277 271 266 263
323 324 323 322 320 322 319 316 311 299 288 299 306 301 299 300 304 309 316 303 297 298 301 298 294 290 300 310 312 313 315 312 306 319 331 299 289 278 279 275 274 270 267
Height
1485 1486 1487 1488 1490 1491 1493 1494 1496 1497 1498 1500 1501 1502 1504 1506 1508 1510 1511 1512 1514 1515 1516 1517 1518 1519 1520 1520 1521 1522 1523 1524 1525 1525 1526 1527 1528 1529 1530 1532 1533 1534 1535
1481 1482 1484 1485 1486 1488 1489 1491 1492 1494 1495 1497 1498 1500 1501 1503 1505 1506 1508 1509 1511 1512 1513 1514 1515 1516 1517 1517 1518 1519 1520 1521 1522 1523 1523 1524 1526 1526 1527 1528 1529 1530 1532
1478 1480 1481 1482 1483 1484 1486 1488 1489 1491 1492 1494 1495 1497 1498 1499 1501 1502 1504 1505 1507 1508 1510 1511 1512 1512 1513 1514 1515 1516 1517 1518 1519 1521 1522 1522 1522 1523 1524 1524 1526 1527 1528
1476 1477 1477 1478 1480 1481 1483 1485 1486 1488 1489 1491 1492 1492 1493 1494 1496 1498 1500 1502 1503 1504 1506 1507 1508 1509 1510 1511 1512 1513 1514 1515 1516 1517 1519 1520 1520 1521 1520 1521 1523 1524 1525
1474 1474 1475 1475 1477 1479 1480 1482 1483 1485 1486 1488 1489 1489 1490 1492 1493 1495 1496 1498 1499 1500 1502 1503 1504 1505 1506 1507 1508 1509 1510 1511 1512 1513 1515 1516 1517 1517 1518 1517 1518 1519 1521
1472 1472 1473 1474 1475 1476 1477 1478 1480 1481 1483 1484 1485 1486 1487 1488 1489 1490 1492 1493 1495 1496 1498 1499 1500 1501 1502 1503 1504 1505 1507 1507 1508 1509 1510 1512 1513 1513 1514 1514 1514 1514 1516
1470 1470 1470 1471 1472 1473 1474 1475 1477 1478 1479 1480 1481 1482 1484 1485 1486 1486 1487 1489 1490 1491 1493 1495 1496 1497 1498 1499 1500 1502 1502 1503 1504 1505 1506 1507 1508 1510 1510 1511 1510 1510 1510
1469 1469 1469 1469 1469 1470 1471 1472 1473 1474 1475 1476 1477 1479 1480 1481 1482 1483 1483 1484 1485 1487 1488 1490 1491 1493 1494 1495 1496 1497 1498 1499 1500 1501 1502 1503 1504 1505 1506 1507 1507 1506 1506
1468 1467 1467 1468 1468 1468 1468 1469 1470 1471 1472 1472 1473 1474 1475 1476 1477 1478 1479 1480 1481 1482 1484 1485 1486 1487 1489 1490 1491 1492 1493 1494 1495 1496 1497 1498 1499 1500 1501 1502 1503 1504 1502
1467 1466 1466 1466 1466 1466 1467 1467 1467 1467 1468 1469 1469 1470 1471 1472 1473 1474 1474 1475 1476 1477 1478 1479 1481 1482 1483 1485 1486 1487 1488 1489 1490 1491 1492 1493 1494 1495 1496 1497 1498 1498 1499
1466 1465 1464 1464 1464 1464 1464 1464 1464 1465 1465 1465 1466 1466 1467 1468 1469 1469 1470 1470 1471 1472 1473 1474 1475 1476 1477 1479 1481 1482 1483 1484 1484 1485 1486 1487 1489 1489 1490 1491 1492 1493 1493
1466 1464 1463 1462 1461 1461 1461 1461 1461 1461 1462 1462 1462 1462 1463 1464 1464 1465 1465 1466 1466 1467 1467 1468 1469 1470 1472 1473 1475 1476 1477 1478 1479 1480 1481 1482 1483 1483 1484 1485 1486 1486 1487
1464 1463 1461 1460 1459 1458 1458 1458 1458 1459 1459 1459 1459 1459 1459 1460 1460 1460 1460 1461 1461 1462 1462 1463 1463 1464 1466 1467 1468 1470 1471 1472 1473 1474 1474 1475 1476 1477 1478 1479 1479 1480 1481
1464 1462 1460 1459 1458 1457 1456 1456 1456 1456 1456 1455 1455 1455 1455 1455 1456 1456 1456 1456 1457 1457 1457 1457 1458 1458 1459 1461 1462 1464 1465 1466 1467 1468 1468 1469 1470 1470 1471 1472 1473 1474 1474
1462 1461 1459 1457 1456 1455 1454 1453 1453 1453 1453 1452 1452 1452 1452 1452 1451 1451 1451 1451 1451 1452 1452 1452 1452 1453 1454 1455 1456 1457 1458 1459 1460 1461 1462 1462 1463 1464 1465 1465 1466 1467 1467
1461 1460 1458 1456 1455 1453 1452 1451 1450 1450 1450 1449 1448 1448 1448 1448 1447 1447 1447 1446 1446 1446 1446 1446 1446 1447 1448 1449 1450 1452 1452 1453 1453 1454 1455 1456 1456 1457 1458 1459 1459 1460 1461
1460 1458 1456 1454 1453 1451 1450 1448 1448 1447 1447 1446 1445 1445 1444 1444 1443 1443 1442 1442 1441 1441 1441 1441 1441 1441 1442 1443 1444 1445 1446 1446 1447 1448 1448 1449 1449 1450 1451 1451 1452 1453 1454
1459 1456 1454 1452 1451 1449 1448 1447 1445 1445 1444 1443 1442 1441 1441 1440 1440 1439 1438 1438 1437 1437 1436 1436 1437 1437 1437 1438 1439 1440 1440 1440 1441 1441 1442 1442 1443 1443 1444 1444 1445 1445 1446
1457 1455 1452 1450 1448 1447 1445 1444 1443 1442 1441 1440 1439 1439 1438 1437 1436 1435 1434 1434 1433 1432 1432 1432 1432 1432 1432 1433 1433 1434 1434 1434 1434 1435 1436 1436 1437 1437 1438 1438 1438 1438 1438
1455 1452 1450 1448 1446 1444 1443 1442 1440 1439 1438 1437 1437 1436 1435 1434 1433 1432 1431 1431 1430 1429 1429 1428 1428 1428 1428 1428 1428 1429 1429 1428 1429 1429 1430 1430 1431 1431 1431 1432 1431 1431 1432
1452 1450 1447 1445 1444 1442 1441 1439 1438 1437 1436 1435 1434 1433 1432 1432 1431 1429 1429 1428 1427 1426 1425 1425 1424 1424 1424 1424 1424 1424 1424 1424 1424 1424 1424 1424 1425 1426 1426 1426 1426 1425 1426
1449 1447 1444 1443 1441 1440 1438 1436 1435 1434 1433 1432 1431 1430 1429 1428 1427 1427 1426 1425 1424 1423 1422 1421 1421 1421 1420 1420 1419 1419 1420 1420 1419 1419 1419 1419 1420 1420 1421 1420 1420 1420 1421
1446 1444 1442 1440 1439 1438 1436 1434 1433 1432 1430 1429 1428 1427 1426 1425 1425 1424 1423 1422 1421 1420 1419 1418 1417 1417 1417 1416 1416 1416 1416 1415 1415 1415 1415 1415 1415 1415 1415 1415 1415 1415 1415
1444 1441 1439 1437 1436 1435 1433 1432 1430 1429 1428 1426 1425 1424 1423 1422 1422 1421 1420 1419 1418 1417 1416 1415 1415 1414 1414 1413 1413 1412 1412 1411 1411 1411 1410 1411 1411 1410 1410 1410 1410 1410 1410
1441 1439 1437 1435 1433 1432 1430 1429 1428 1426 1425 1424 1423 1422 1421 1420 1419 1418 1418 1416 1416 1416 1415 1413 1413 1412 1411 1411 1411 1410 1409 1408 1408 1407 1406 1406 1406 1405 1405 1405 1405 1405 1405
1439 1437 1435 1433 1431 1429 1428 1427 1425 1424 1422 1421 1420 1419 1418 1418 1416 1415 1415 1414 1414 1413 1412 1412 1411 1410 1410 1409 1408 1407 1406 1405 1404 1404 1402 1402 1401 1401 1400 1400 1399 1399 1399